Regional Weather Roundup
Issued by NWS

Home | Current Version | Previous Version | Text Only | Print | Product List | Glossary On
Versions: 1 2 3 4 5 6 7 8 9 10 11 12 13 14 15 16 17 18 19 20 21 22 23 24 25 26 27 28 29 30 31 32 33 34 35 36 37 38 39 40 41 42 43 44 45 46 47 48 49 50
000
ASUS43 KMKX 061721
RWRWI

WISCONSIN REGIONAL WEATHER ROUNDUP
NATIONAL WEATHER SERVICE MILWAUKEE/SULLIVAN WI
1200 PM CDT FRI MAY 06 2016

NOTE: "FAIR" INDICATES FEW OR NO CLOUDS BELOW 12,000 FEET WITH NO
SIGNIFICANT WEATHER AND/OR OBSTRUCTIONS TO VISIBILITY.

WIZ001-002-006>008-014>016-023>028-061800-
NORTHWEST WISCONSIN

CITY           SKY/WX    TMP DP  RH WIND       PRES   REMARKS
SUPERIOR ARPT  SUNNY     90  47  22 SW16      29.70F HX  87
ASHLAND        SUNNY     90  41  18 SW10G22   29.73F HX  86
HAYWARD        SUNNY     85  39  19 SW12G20   29.79F HX  82
SIREN          SUNNY     83  46  27 SW14G21   29.78F HX  81
CUMBERLAND     SUNNY     81  41  24 SW14      29.81F
RICE LAKE      SUNNY     83  43  23 S13       29.82F HX  81
CHETEK         SUNNY     83  49  30 SW8       29.82F HX  81
LADYSMITH      SUNNY     83  44  24 SW10      29.83F HX  81
EAU CLAIRE     SUNNY     84  46  26 W14       29.82F HX  82
MENOMONIE      SUNNY     85  50  28 SW14      29.83F HX  83
NEW RICHMOND   SUNNY     81  49  33 SW12      29.82F HX  80
OSCEOLA        SUNNY     82  49  32 SW10      29.83F HX  80
$$

WIZ003>005-009-010-017-018-061800-
NORTH CENTRAL WISCONSIN

CITY           SKY/WX    TMP DP  RH WIND       PRES   REMARKS
MANITOWISH WTR SUNNY     82  43  24 W13       29.79F HX  80
ARBOR VITAE    SUNNY     83  39  21 W12       29.81F HX  80
WOODRUFF       SUNNY     83  39  21 W12       29.81F HX  80
RHINELANDER    SUNNY     84  40  21 W18       29.83F HX  81
EAGLE RIVER    SUNNY     82  34  17 NW16      29.81F HX  80
LAND O LAKES   SUNNY     82  38  20 W8        29.81F HX  80
PHILLIPS       SUNNY     82  43  25 W7        29.80F HX  80
TOMAHAWK       SUNNY     83  38  20 W9        29.82F HX  80
MEDFORD        SUNNY     78  46  31 W13       29.84F
MERRILL        SUNNY     82  43  25 W9        29.83F HX  80
$$

WIZ029-030-035-036-043>047-061800-
CENTRAL WISCONSIN

CITY           SKY/WX    TMP DP  RH WIND       PRES   REMARKS
WAUSAU         SUNNY     81  46  29 NW5       29.82F HX  80
MOSINEE        SUNNY     79  45  29 W9G16     29.86F
MARSHFIELD     SUNNY     82  47  29 W12G20    29.84F HX  80
STEVENS POINT  SUNNY     74  45  35 W9        29.86F
WAUPACA        SUNNY     79  40  24 NW7       29.85F
WAUTOMA        MOSUNNY   74  45  35 W10       29.87F
WISC RAPIDS    SUNNY     80  40  23 SW7       29.87F
CAMP DOUGLAS   SUNNY     79  52  38 W8        29.87F
$$

WIZ011>013-019>022-031-037>040-048>050-061800-
NORTHEAST WISCONSIN

CITY           SKY/WX    TMP DP  RH WIND       PRES   REMARKS
ANTIGO         SUNNY     77  49  36 NW7       29.84F
SHAWANO        SUNNY     77  43  29 SW6       29.84F
OCONTO         SUNNY     71  48  43 SE10      29.81F
STURGEON BAY   SUNNY     70  48  46 S10       29.86F
GREEN BAY      SUNNY     74  49  41 SW9       29.83F
MANITOWOC      SUNNY     68  44  42 SE16G22   29.86F
APPLETON       MOSUNNY   73  43  33 SW9       29.84F
CLINTONVILLE   SUNNY     75  43  31 W6        29.84F
OSHKOSH        SUNNY     77  48  35 W6        29.85F
$$

WIZ032>034-041-042-053>061-061800-
SOUTHWEST WISCONSIN

CITY           SKY/WX    TMP DP  RH WIND       PRES   REMARKS
LA CROSSE      SUNNY     79  49  34 SE6       29.86F
SPARTA         SUNNY     79  45  30 W8        29.88F
VIROQUA        SUNNY     79  43  28 W7        29.91F
BOSCOBEL       SUNNY     78  47  33 S8        29.91F
PRAIRIE DU CHI SUNNY     79  44  28 S3        29.90F
PLATTEVILLE    SUNNY     74  47  38 SW12      29.95S
$$

WIZ056-057-062-063-064-067-068-061800-
SOUTH CENTRAL WISCONSIN

CITY           SKY/WX    TMP DP  RH WIND       PRES   REMARKS
REEDSBURG      SUNNY     73  49  43 SW6       29.90F
BARABOO/DELLS  SUNNY     75  42  31 SW9       29.90F
LONE ROCK      SUNNY     75  48  38 W9        29.91F
MINERAL POINT  SUNNY     73  43  33 W6        29.93F
MADISON        MOSUNNY   72  46  39 SW5       29.90F
MIDDLETON      SUNNY     76  47  34 W5        29.91F
WATERTOWN      SUNNY     74  48  39 W5        29.89F
MONROE         SUNNY     72  45  37 W12       29.93F
JANESVILLE     MOSUNNY   75  45  33 W9        29.91F
$$

WIZ051-052-058>065-066-070>072-061800-
SOUTHEAST WISCONSIN

CITY           SKY/WX    TMP DP  RH WIND       PRES   REMARKS
MILWAUKEE      MOSUNNY   74  41  30 S9        29.90F
WAUKESHA       SUNNY     72  43  35 SW8       29.91F
MILWAUKEE/TIMM NOT AVBL
RACINE         SUNNY     75  42  30 SW10      29.92F
BURLINGTON     SUNNY     73  42  31 W10       29.91F
KENOSHA        SUNNY     74  44  34 S9        29.92F
FOND DU LAC    SUNNY     77  48  35 W7        29.86F
SHEBOYGAN      SUNNY     74  44  34 SW8       29.86F
WEST BEND      SUNNY     73  43  33 SW6       29.88F
JUNEAU         MOSUNNY   73  49  41 SW12      29.89F
$$

LSZ147-162-061800-
LAKE SUPERIOR

STATION/POSITION TIME  TEMP    WIND        PRES    WAVE
                       AIR SEA DIR/SP/G            HT/PER
                 (UTC) (F)     (DEG/KT/KT) (MB)    (FT/S)
W MID LAKE BUOY  1650   44 37  220/  6/  6 1006.5F   0
DEVILS ISLAND    1700   70     230/ 19/ 22 1005.4F
SAXON HARBOR     1640   85     260/  6/ 13 1006.4F
$$

LMZ867-665-643>646-061800-
LAKE MICHIGAN

STATION/POSITION TIME  TEMP    WIND        PRES    WAVE
                       AIR SEA DIR/SP/G            HT/PER
                 (UTC) (F)     (DEG/KT/KT) (MB)    (FT/S)
CHAMBERS ISLAND  1600   65     200/  9/ 15 1010.8F
N MID LAKE BUOY  1650   42 39  180/ 14/ 16 1011.3F   2/ 4
NORTHPORT PIER   1600   49     150/ 10/ 15 1010.8F
SISTER BAY       1604   64     160/ 11/ 15   N/A
ALGOMA LAKESHORE 1615          210/ 14/ 16   N/A
KEWAUNEE LAKESHO 1600   47     170/ 12/ 14 1010.9F
SHEBOYGAN LAKESH 1700   49     160/ 20/ 21 1011.7F
PORT WASHINGTON  1640   55     170/  4/  7 1012.9F
S MID LAKE BUOY  1650   44 41  160/ 10/ 12 1014.1F   0
KENOSHA   LAKESH 1700   59     150/ 10/ 14 1012.9F
$$

TC  - TEMPERATURE IN CELSIUS
VSB - VISIBILITY IN STATUTE MILES
WCI - WIND CHILL INDEX
HX  - HEAT INDEX




USA.gov is the U.S. government's official web portal to all federal, state and local government web resources and services.